www.pogodaiklimat.ru

Погода и климат >> Архив погоды >> Иран >> Sirri Island


ПОГОДА в Sirri Island

  • Прогноз погоды в Sirri Island
  • Монитор погоды в Sirri Island
  • Климат города

АРХИВ ПОГОДЫ в Sirri Island

Время (UTC), дата Ветер
(напр.,м/с)
 
Видим.   Явления Облачность Т
(С)
Тd
(С)
f
(%)
Тe
(С)
Тes
(С)
Комфортность P
(гПа)
Po
(гПа)
Тmin
(С)
Tmax
(С)
R
(мм)
R24
(мм)
S
(см)
03 12.12 СЗ 6 10 км 3/3 900 м
[St]
+23.0 +16.5 67 +28 +28 душно 1017.8 1017.3 +22.8
06 12.12 СЗ 4 10 км ясно +25.0 1019.8 1019.3
09 12.12 ЮЗ 5 10 км ясно +26.2 +14.5 49 +29 +34 жарко 1018.0 1017.5
12 12.12 СЗ 4 10 км ясно +25.8 1017.0 1016.5
15 12.12 штиль 0 10 км ясно +23.2 +15.6 62 +27 +27 душно 1018.2 1017.7 +27.0
03 13.12 штиль 0 10 км ясно +22.2 +15.2 65 +26 +26 душно 1019.5 1019.0 +18.6
06 13.12 ЮВ 2 10 км 3/3 600 м
[St]
+25.2 1021.6 1021.1
09 13.12 ЮВ 3 10 км 5/1 750 м
[Cu hum]
+26.2 +15.3 51 +29 +34 жарко 1020.0 1019.5
12 13.12 Ю 2 10 км 3/3 1000 м
[Sc diur, vesp]
+25.4 1019.1 1018.5
15 13.12 штиль 0 10 км ясно +23.2 +15.6 62 +27 +27 душно 1020.0 1019.5 +26.6
03 14.12 СЗ 2 10 км 1/1 900 м
[Sc diur, vesp]
+19.8 +14.3 71 +22 +22 комфорт 1021.5 1021.0 +19.4
06 14.12 СВ 2 10 км ясно +24.2 1023.0 1022.5
12 14.12 В 2 10 км ясно +26.0 1019.9 1019.4
15 14.12 ЮЗ 2 10 км ясно +23.4 +15.4 61 +28 +28 душно 1020.9 1020.4 +26.6
03 15.12 СЗ 2 8000 м мгла 1/1 900 м
[Sc diur, vesp]
+20.2 +13.2 64 +23 +23 комфорт 1021.1 1020.6 +19.2
06 15.12 СВ 4 10 км ясно +24.4 1022.9 1022.4
09 15.12 С 3 10 км ясно +25.2 +16.4 58 +29 +36 душно 1021.4 1020.9
12 15.12 С 5 10 км 1/1 1000 м
[Cu hum]
+25.0 1019.5 1019.0
15 15.12 С 4 10 км ясно +23.4 +18.0 72 +29 +29 душно 1020.5 1020.0 +25.4
03 16.12 С 2 10 км ясно +20.4 +13.8 66 +23 +23 комфорт 1022.6 1022.1 +20.0
06 16.12 СВ 5 10 км ясно +24.8 1024.7 1024.2
09 16.12 СВ 7 12 км 1/1 1050 м
[Cu hum]
+25.0 +18.4 67 +30 +32 душно 1022.7 1022.2
12 16.12 СВ 6 15 км ясно +24.8 1021.0 1020.5
15 16.12 СВ 4 15 км ясно +23.6 +17.5 69 +28 +28 душно 1021.9 1021.4 +25.2
03 17.12 С 2 10 км 1/1 900 м
[Sc diur, vesp]
+20.6 +15.4 72 +24 +24 комфорт 1022.3 1021.8 +20.4
06 17.12 С 4 10 км ясно +24.4 +14.7 55 +27 +31 жарко 1023.5 1023.0
09 17.12 СВ 5 15 км ясно +25.8 +12.3 43 +27 +32 жарко 1021.3 1020.8
12 17.12 С 5 15 км ясно +25.4 1019.8 1019.3
15 17.12 С 6 15 км ясно +24.2 +12.8 49 +26 +26 жарко 1020.4 1019.9 +26.0
03 18.12 СЗ 2 10 км ясно +20.4 +13.0 62 +23 +23 комфорт 1021.3 1020.8 +20.0
06 18.12 СЗ 3 12 км ясно +25.0 1023.2 1022.7 28
09 18.12 СЗ 5 15 км ясно +25.8 +12.3 43 +27 +32 жарко 1021.3 1020.8
12 18.12 СЗ 5 20 км 1/1 600 м
[Cu hum]
+25.2 1019.7 1019.2
15 18.12 З 5 20 км 3/3 1050 м
[Sc diur, vesp]
+23.2 +13.2 53 +26 +26 жарко 1020.3 1019.8 +26.4

 

Местоположение метеостанции Sirri Island (Иран): широта 25.91 долгота 54.55 высота над уровнем моря 4 м.

В архиве по умолчанию представлена погода в Sirri Island за последнюю неделю. Архивные данные за месяц целиком и за предыдущие месяцы, начиная с января 2011 года, Вы можете получить, выбрав интересующий диапазон дат из раскрывающегося списка и нажав кнопку "Ввод!".


*Определитесь, кто Вы:
робот инопланетянин человек

Внимание! Время в таблицах - всемирное. Для получения местного времени необходимо прибавить поправку, которая в Sirri Island равна 3.5 ч.

Смотрите также архив погоды в соседних городах и на ближайших метеорологических станциях:

Погода в Abu Musa Island (Иран) (29 км)
Погода в Bandar Lengeh (Иран) (80 км)
Погода в Kish Island (Иран) (87 км)
Погода в Dubai (ОАЭ) (107 км)
Погода в Sharjah (ОАЭ) (117 км)
Погода в Dubai Al Maktoum Int Airport (ОАЭ) (128 км)
Погода в Ras Al Khaimah Int Airport (ОАЭ) (142 км)
Погода в Abu Dhabi Bateen Airport (ОАЭ) (165 км)
Погода в Abu Dhabi (ОАЭ) (165 км)
Погода в Khasab Airport (Оман) (170 км)

Пояснения к столбцам:

Ветер - указаны скорость ветра в м/с - средняя за 10 мин, порывы в срок и между сроками (в фигурных скобках) и направление, откуда дует ветер: С - северный, СВ - северо-восточный, В - восточный, ЮВ - юго-восточный, Ю - южный, ЮЗ - юго-западный, З - западный, СЗ - северо-западный.
Видимость - горизонтальная дальность видимости в метрах или километрах. При видимости от 1 до 10 км при отсутствии осадков обычно наблюдается дымка, при ухудшении видимости до 1 км и менее - туман. В сухую погоду видимость может ухудшаться дымом, пылью или мглою.
Явления - указаны атмосферные явления, наблюдавшиеся в срок или в последний час перед сроком; фигурными скобками обозначены явления, наблюдавшиеся между сроками (за 1-3 часа до срока); квадратными скобками обозначены град или гололедные отложения с указанием их диаметра в мм.
Облачность - указаны через наклонную черту общая и нижняя облачность в баллах и высота нижней границы облаков в метрах; квадратными скобками обозначены формы облаков: Ci - перистые, Cs - перисто-слоистые, Cc - перисто-кучевые, Ac - высококучевые, As - высокослоистые, Sc - слоисто-кучевые, Ns - слоисто-дождевые, Cu - кучевые, Cb - кучево-дождевые. Подробнее классификацию облаков см. в Атласе облаков (PDF).
T - Температура воздуха - температура, измеренная на высоте 2 м над землей.
Td - Температура точки росы - температура, при понижении до которой содержащийся в воздухе водяной пар достигнет насыщения.
f - Относительная влажность воздуха - влажноcть воздуха, измеренная на высоте 2 м над землей.
Te - Эффективная температура - температура, которую ощущает одетый по сезону человек в тени. Характеристика душности погоды. При расчете учитывается влияние влажности воздуха и скорости ветра на теплоощущения человека.
Tes - Эффективная температура на солнце - температура, которую ощущает человек, с поправкой на солнечный нагрев. Характеристика знойности погоды. Зависит от высоты солнца над горизонтом, облачности и скорости ветра. Ночью, в пасмурную погоду, а также при ветре 12 м/с и более поправка равна нулю.
P - Атмосферное давление - приведенное к уровню моря атмосферное давление.
Po - Атмосферное давление - измеренное на уровне метеостанции атмосферное давление.
Tmin - Минимальная температура - минимум температуры воздуха на высоте 2 м над землей.
Tmax - Максимальная температура - максимум температуры воздуха на высоте 2 м над землей.
R - Количество осадков - Количество выпавших осадков за период времени, мм. При наведении курсора мыши на число - период времени, за который выпало указанное количество осадков.
R24 - Количество осадков - Количество выпавших осадков за 24 часа, мм.
S - Снежный покров - Высота снежного покрова, см. При наведении курсора мыши на число - состояние снежного покрова и степень покрытия местности в баллах.